,,,PA_Meas_PMT16A,,PR_Meas_QMR101_102,,RH_Meas_QMH101,,SR_Meas_QMS101,,TA_Meas_QMH101,,GenWind,,GenWind,
date,time,status,PA,status,PR,status,RH,status,SR,status,TA,status,DirAvg,status,SpdAvg,
2012-08-15, 07:52:04,VALID,1007.02,VALID,0,VALID,92.5765,VALID,137.506,VALID,23.8575,VALID,101,VALID,1.06953,
2012-08-15, 07:53:04,VALID,1007.05,VALID,0,VALID,92.4468,VALID,144.434,VALID,23.8964,VALID,93,VALID,1.03867,
2012-08-15, 07:54:04,VALID,1007.06,VALID,0,VALID,92.4925,VALID,151.851,VALID,23.9353,VALID,99,VALID,1.40156,
2012-08-15, 07:55:04,VALID,1007.15,VALID,0,VALID,92.3323,VALID,158.046,VALID,23.9742,VALID,96,VALID,2.03633,
2012-08-15, 07:56:04,VALID,1007.21,VALID,0,VALID,92.2332,VALID,162.447,VALID,24.0326,VALID,107,VALID,2.12305,
2012-08-15, 07:57:04,VALID,1007.25,VALID,0,VALID,92.0806,VALID,165.3,VALID,24.0521,VALID,77,VALID,1.54102,
2012-08-15, 07:58:04,VALID,1007.3,VALID,0,VALID,92.0501,VALID,167.501,VALID,24.13,VALID,98,VALID,1.68906,
2012-08-15, 07:59:04,VALID,1007.33,VALID,0,VALID,91.8212,VALID,168.723,VALID,24.1494,VALID,83,VALID,2.0125,
2012-08-15, 08:00:04,VALID,1007.37,VALID,0,VALID,91.5618,VALID,169.539,VALID,24.1689,VALID,90,VALID,1.77227,
2012-08-15, 08:01:04,VALID,1007.38,VALID,0,VALID,91.1804,VALID,169.62,VALID,24.2291,VALID,84,VALID,1.99375,
2012-08-15, 08:02:04,VALID,1007.39,VALID,0,VALID,91.2262,VALID,168.968,VALID,24.2486,VALID,106,VALID,1.41094,
2012-08-15, 08:03:04,VALID,1007.45,VALID,0,VALID,91.6305,VALID,168.479,VALID,24.3246,VALID,106,VALID,1.56523,
2012-08-15, 08:04:04,VALID,1007.45,VALID,0,VALID,90.8371,VALID,168.56,VALID,24.3265,VALID,132,VALID,1.53594,
2012-08-15, 08:05:04,VALID,1007.43,VALID,0,VALID,90.3641,VALID,169.62,VALID,24.3246,VALID,113,VALID,1.47539,
2012-08-15, 08:06:04,VALID,1007.43,VALID,0,VALID,90.509,VALID,171.739,VALID,24.3636,VALID,109,VALID,1.22266,
2012-08-15, 08:07:04,VALID,1007.45,VALID,0,VALID,90.6845,VALID,174.918,VALID,24.4238,VALID,104,VALID,1.24805,
2012-08-15, 08:08:04,VALID,1007.46,VALID,0,VALID,90.0742,VALID,178.831,VALID,24.4201,VALID,132,VALID,1.47305,
2012-08-15, 08:09:04,VALID,1007.48,VALID,0,VALID,90.0208,VALID,182.417,VALID,24.4628,VALID,115,VALID,1.64688,
2012-08-15, 08:10:04,VALID,1007.48,VALID,0,VALID,89.853,VALID,184.699,VALID,24.4201,VALID,122,VALID,1.81914,
2012-08-15, 08:11:04,VALID,1007.48,VALID,0,VALID,89.975,VALID,185.188,VALID,24.4804,VALID,90,VALID,0.951172,
2012-08-15, 08:12:04,VALID,1007.51,VALID,0,VALID,89.8377,VALID,183.558,VALID,24.5193,VALID,88,VALID,1.39297,
2012-08-15, 08:13:04,VALID,1007.53,VALID,0,VALID,89.9826,VALID,179.809,VALID,24.5582,VALID,89,VALID,1.27461,
2012-08-15, 08:14:04,VALID,1007.55,VALID,0,VALID,89.9598,VALID,174.837,VALID,24.5777,VALID,89,VALID,0.919922,
2012-08-15, 08:15:04,VALID,1007.55,VALID,0,VALID,89.9445,VALID,168.886,VALID,24.6166,VALID,110,VALID,0.732422,
2012-08-15, 08:16:04,VALID,1007.59,VALID,0,VALID,89.7538,VALID,162.284,VALID,24.6556,VALID,84,VALID,0.933203,
2012-08-15, 08:17:04,VALID,1007.58,VALID,0,VALID,89.8148,VALID,155.601,VALID,24.675,VALID,94,VALID,1.23281,
2012-08-15, 08:18:04,VALID,1007.61,VALID,0,VALID,89.6241,VALID,149.161,VALID,24.675,VALID,103,VALID,1.28633,
2012-08-15, 08:19:04,VALID,1007.6,VALID,0,VALID,89.8224,VALID,143.293,VALID,24.7353,VALID,108,VALID,0.953125,
2012-08-15, 08:20:04,VALID,1007.59,VALID,0,VALID,89.8911,VALID,138.239,VALID,24.7335,VALID,97,VALID,1.08906,
2012-08-15, 08:21:04,VALID,1007.57,VALID,0,VALID,90.3412,VALID,134.245,VALID,24.7335,VALID,101,VALID,0.900391,
2012-08-15, 08:22:04,VALID,1007.57,VALID,0,VALID,90.2039,VALID,130.903,VALID,24.7548,VALID,93,VALID,1.36211,
2012-08-15, 08:23:04,VALID,1007.55,VALID,0,VALID,89.8911,VALID,128.295,VALID,24.7548,VALID,137,VALID,0.936719,
2012-08-15, 08:24:04,VALID,1007.56,VALID,0,VALID,89.9064,VALID,125.768,VALID,24.7529,VALID,113,VALID,1.05234,
2012-08-15, 08:25:04,VALID,1007.55,VALID,0,VALID,90.1276,VALID,123.16,VALID,24.7724,VALID,104,VALID,0.686328,
2012-08-15, 08:26:04,VALID,1007.52,VALID,0,VALID,90.0818,VALID,120.47,VALID,24.7529,VALID,108,VALID,0.852734,
2012-08-15, 08:27:04,VALID,1007.55,VALID,0,VALID,90.6387,VALID,117.617,VALID,24.8327,VALID,106,VALID,0.605859,
2012-08-15, 08:28:04,VALID,1007.56,VALID,0,VALID,90.9363,VALID,114.683,VALID,24.8716,VALID,127,VALID,0.701953,
2012-08-15, 08:29:04,VALID,1007.57,VALID,0,VALID,90.8066,VALID,111.749,VALID,24.8503,VALID,122,VALID,1.08789,
2012-08-15, 09:00:04,VALID,1008.06,VALID,0,VALID,90.715,VALID,120.063,VALID,24.9866,VALID,112,VALID,1.01211,
2012-08-15, 09:01:04,VALID,1008.05,VALID,0,VALID,90.7226,VALID,122.019,VALID,24.9866,VALID,115,VALID,0.264844,
2012-08-15, 09:02:04,VALID,1008.08,VALID,0,VALID,90.6921,VALID,123.486,VALID,25.0079,VALID,85,VALID,1.03516,
2012-08-15, 09:03:04,VALID,1008.1,VALID,0,VALID,90.2344,VALID,125.035,VALID,24.9866,VALID,92,VALID,0.763281,
2012-08-15, 09:04:04,VALID,1008.11,VALID,0,VALID,89.6927,VALID,126.257,VALID,25.0274,VALID,103,VALID,1.16836,
2012-08-15, 09:05:04,VALID,1008.14,VALID,0,VALID,90.1352,VALID,127.806,VALID,25.0663,VALID,103,VALID,0.344531,
2012-08-15, 09:06:04,VALID,1008.2,VALID,0,VALID,90.2649,VALID,129.436,VALID,25.0858,VALID,68,VALID,0.391406,
2012-08-15, 09:07:04,VALID,1008.21,VALID,0,VALID,90.6387,VALID,131.474,VALID,25.1442,VALID,68,VALID,0.104687,
2012-08-15, 09:08:04,VALID,1008.21,VALID,0,VALID,90.715,VALID,134.001,VALID,25.1832,VALID,68,VALID,0.372656,
2012-08-15, 09:09:04,VALID,1008.24,VALID,0,VALID,90.8981,VALID,137.261,VALID,25.2221,VALID,30,VALID,0.409766,
2012-08-15, 09:10:04,VALID,1008.21,VALID,0,VALID,90.593,VALID,140.521,VALID,25.2221,VALID,58,VALID,0.807031,
2012-08-15, 09:11:04,VALID,1008.24,VALID,0,VALID,90.0513,VALID,143.619,VALID,25.1813,VALID,68,VALID,0.229687,
2012-08-15, 09:12:04,VALID,1008.25,VALID,0,VALID,90.6769,VALID,145.901,VALID,25.2397,VALID,81,VALID,0.396875,
2012-08-15, 09:13:04,VALID,1008.25,VALID,0,VALID,90.7684,VALID,146.309,VALID,25.3,VALID,94,VALID,0.299609,
2012-08-15, 09:14:04,VALID,1008.24,VALID,0,VALID,90.387,VALID,144.841,VALID,25.2806,VALID,130,VALID,0.892969,
2012-08-15, 09:15:04,VALID,1008.23,VALID,0,VALID,89.7996,VALID,142.885,VALID,25.2397,VALID,118,VALID,0.763281,
2012-08-15, 09:16:04,VALID,1008.23,VALID,0,VALID,89.9674,VALID,145.982,VALID,25.2806,VALID,129,VALID,0.626562,
2012-08-15, 09:17:04,VALID,1008.25,VALID,0,VALID,89.6546,VALID,152.503,VALID,25.2397,VALID,123,VALID,1.09219,
2012-08-15, 09:18:04,VALID,1008.23,VALID,0,VALID,90.4709,VALID,152.422,VALID,25.2786,VALID,114,VALID,0.328906,
2012-08-15, 09:19:04,VALID,1008.23,VALID,0,VALID,90.4175,VALID,150.547,VALID,25.3195,VALID,102,VALID,0.465625,
2012-08-15, 09:20:04,VALID,1008.25,VALID,0,VALID,89.5707,VALID,148.917,VALID,25.2806,VALID,103,VALID,0.659375,
2012-08-15, 09:21:04,VALID,1008.3,VALID,0,VALID,89.3266,VALID,147.939,VALID,25.2806,VALID,86,VALID,1.12656,
2012-08-15, 09:22:04,VALID,1008.29,VALID,0,VALID,89.9826,VALID,147.613,VALID,25.3195,VALID,118,VALID,0.907031,
2012-08-15, 09:23:04,VALID,1008.33,VALID,0,VALID,89.7309,VALID,147.694,VALID,25.3,VALID,91,VALID,1.19023,
2012-08-15, 09:24:04,VALID,1008.33,VALID,0,VALID,89.8682,VALID,147.939,VALID,25.3,VALID,109,VALID,0.777734,
2012-08-15, 09:25:04,VALID,1008.34,VALID,0,VALID,89.0443,VALID,148.428,VALID,25.2806,VALID,108,VALID,1.28008,
2012-08-15, 09:26:04,VALID,1008.32,VALID,0,VALID,88.5255,VALID,149.324,VALID,25.2416,VALID,124,VALID,1.25195,
2012-08-15, 09:27:04,VALID,1008.36,VALID,0.5,VALID,88.968,VALID,149.895,VALID,25.2806,VALID,90,VALID,0.854297,
2012-08-15, 09:28:04,VALID,1008.36,VALID,0,VALID,88.8078,VALID,149.813,VALID,25.2806,VALID,102,VALID,1.32734,
2012-08-15, 09:29:04,VALID,1008.37,VALID,0,VALID,89.1435,VALID,150.465,VALID,25.2786,VALID,70,VALID,0.770312,
2012-08-15, 09:30:04,VALID,1008.38,VALID,0,VALID,88.6018,VALID,150.791,VALID,25.2397,VALID,88,VALID,1.35547,
2012-08-15, 09:31:04,VALID,1008.38,VALID,0,VALID,89.7004,VALID,150.791,VALID,25.2786,VALID,113,VALID,1.15352,
2012-08-15, 09:32:04,VALID,1008.4,VALID,0,VALID,89.8224,VALID,150.628,VALID,25.2981,VALID,76,VALID,0.709375,
2012-08-15, 09:33:04,VALID,1008.44,VALID,0,VALID,89.0214,VALID,150.955,VALID,25.2592,VALID,127,VALID,1.26016,
2012-08-15, 09:34:04,VALID,1008.41,VALID,0,VALID,89.5325,VALID,152.34,VALID,25.2592,VALID,97,VALID,0.883594,
2012-08-15, 09:35:04,VALID,1008.45,VALID,0,VALID,89.6241,VALID,154.622,VALID,25.2786,VALID,93,VALID,0.460547,
2012-08-15, 09:36:04,VALID,1008.45,VALID,0,VALID,89.235,VALID,157.394,VALID,25.2183,VALID,87,VALID,0.994922,
2012-08-15, 09:37:04,VALID,1008.45,VALID,0,VALID,89.1892,VALID,160.002,VALID,25.2202,VALID,135,VALID,1.39375,
2012-08-15, 09:38:04,VALID,1008.45,VALID,0,VALID,89.5402,VALID,163.018,VALID,25.2202,VALID,128,VALID,1.00078,
2012-08-15, 09:39:04,VALID,1008.45,VALID,0,VALID,90.0818,VALID,166.441,VALID,25.2592,VALID,122,VALID,1.15469,
2012-08-15, 09:40:04,VALID,1008.44,VALID,0,VALID,89.5402,VALID,170.191,VALID,25.2397,VALID,98,VALID,1.10117,
2012-08-15, 09:41:04,VALID,1008.42,VALID,0,VALID,89.5859,VALID,174.022,VALID,25.2592,VALID,108,VALID,1.79766,
2012-08-15, 09:42:04,VALID,1008.41,VALID,0,VALID,89.914,VALID,177.526,VALID,25.2592,VALID,133,VALID,1.46836,
2012-08-15, 09:43:04,VALID,1008.42,VALID,0,VALID,90.3107,VALID,180.705,VALID,25.2786,VALID,142,VALID,1.01172,
2012-08-15, 09:44:04,VALID,1008.44,VALID,0,VALID,90.3336,VALID,183.232,VALID,25.3176,VALID,116,VALID,1.28125,
2012-08-15, 09:45:04,VALID,1008.43,VALID,0,VALID,90.5777,VALID,185.107,VALID,25.3176,VALID,132,VALID,0.939453,
2012-08-15, 09:46:04,VALID,1008.44,VALID,0,VALID,89.6241,VALID,186.574,VALID,25.3195,VALID,125,VALID,0.551172,
2012-08-15, 09:47:04,VALID,1008.44,VALID,0,VALID,90.3488,VALID,187.389,VALID,25.376,VALID,120,VALID,0.711719,
2012-08-15, 09:48:04,VALID,1008.41,VALID,0,VALID,90.036,VALID,187.307,VALID,25.3779,VALID,89,VALID,0.786328,
2012-08-15, 09:49:04,VALID,1008.43,VALID,0,VALID,89.3418,VALID,186.981,VALID,25.3565,VALID,110,VALID,1.03516,
2012-08-15, 09:50:04,VALID,1008.44,VALID,0,VALID,90.2573,VALID,186.003,VALID,25.4363,VALID,134,VALID,0.684766,
2012-08-15, 09:51:04,VALID,1008.41,VALID,0,VALID,89.4639,VALID,185.27,VALID,25.3955,VALID,74,VALID,0.601172,
2012-08-15, 09:52:04,VALID,1008.37,VALID,0,VALID,88.0144,VALID,183.884,VALID,25.3565,VALID,157,VALID,1.19648,
2012-08-15, 09:53:04,VALID,1008.38,VALID,0,VALID,88.9375,VALID,182.417,VALID,25.3955,VALID,128,VALID,0.977734,
2012-08-15, 09:54:04,VALID,1008.36,VALID,0,VALID,89.8682,VALID,180.298,VALID,25.4948,VALID,124,VALID,0.45,
2012-08-15, 09:55:04,VALID,1008.37,VALID,0,VALID,88.8154,VALID,177.608,VALID,25.4344,VALID,117,VALID,1.36016,
2012-08-15, 09:56:04,VALID,1008.39,VALID,0,VALID,88.3577,VALID,173.777,VALID,25.3955,VALID,127,VALID,1.43164,
2012-08-15, 09:57:04,VALID,1008.41,VALID,0,VALID,88.7544,VALID,166.767,VALID,25.413,VALID,135,VALID,0.816016,
2012-08-15, 09:58:04,VALID,1008.4,VALID,0,VALID,89.9521,VALID,160.899,VALID,25.4928,VALID,143,VALID,1.18633,
2012-08-15, 09:59:04,VALID,1008.4,VALID,0,VALID,89.8758,VALID,161.551,VALID,25.5318,VALID,93,VALID,0.5,
2012-08-15, 10:00:04,VALID,1008.37,VALID,0,VALID,89.1892,VALID,164.403,VALID,25.5142,VALID,95,VALID,1.07422,
2012-08-15, 10:01:04,VALID,1008.4,VALID,0,VALID,89.1358,VALID,165.545,VALID,25.4734,VALID,158,VALID,1.28359,
2012-08-15, 10:02:04,VALID,1008.41,VALID,0,VALID,88.3501,VALID,167.093,VALID,25.4149,VALID,139,VALID,1.22773,
2012-08-15, 10:03:04,VALID,1008.37,VALID,0,VALID,89.2121,VALID,166.849,VALID,25.4344,VALID,143,VALID,0.8625,
2012-08-15, 10:04:04,VALID,1008.37,VALID,0,VALID,89.4028,VALID,164.566,VALID,25.4344,VALID,148,VALID,1.63008,
2012-08-15, 10:05:04,VALID,1008.36,VALID,0,VALID,89.3037,VALID,155.438,VALID,25.4344,VALID,135,VALID,2.02305,
2012-08-15, 10:06:04,VALID,1008.36,VALID,0,VALID,89.2198,VALID,131.474,VALID,25.4149,VALID,123,VALID,1.36836,
2012-08-15, 10:09:04,VALID,1008.35,VALID,0,VALID,89.8911,VALID,129.599,VALID,25.4539,VALID,122,VALID,1.24023,
2012-08-15, 10:10:04,VALID,1008.34,VALID,0,VALID,90.242,VALID,137.098,VALID,25.4539,VALID,130,VALID,0.985937,
2012-08-15, 10:11:04,VALID,1008.32,VALID,0,VALID,89.0214,VALID,144.76,VALID,25.4149,VALID,129,VALID,2.64258,
2012-08-15, 10:12:04,VALID,1008.34,VALID,0,VALID,88.4492,VALID,151.199,VALID,25.376,VALID,142,VALID,2.23945,
2012-08-15, 10:13:04,VALID,1008.33,VALID,0,VALID,89.1511,VALID,152.992,VALID,25.3955,VALID,132,VALID,2.25117,
2012-08-15, 10:14:04,VALID,1008.32,VALID,0,VALID,88.6857,VALID,150.221,VALID,25.376,VALID,122,VALID,1.34023,
2012-08-15, 10:15:04,VALID,1008.31,VALID,0,VALID,88.6552,VALID,145.656,VALID,25.3955,VALID,136,VALID,2.0375,
2012-08-15, 10:16:04,VALID,1008.3,VALID,0,VALID,89.0748,VALID,138.321,VALID,25.376,VALID,121,VALID,1.2707,
2012-08-15, 10:17:04,VALID,1008.29,VALID,0,VALID,88.5332,VALID,127.154,VALID,25.376,VALID,89,VALID,2.12188,
2012-08-15, 10:18:04,VALID,1008.3,VALID,0,VALID,88.6628,VALID,113.46,VALID,25.3974,VALID,130,VALID,1.74063,
2012-08-15, 10:22:04,VALID,1008.24,VALID,0,VALID,88.4645,VALID,126.094,VALID,25.2592,VALID,136,VALID,1.31758,
2012-08-15, 10:23:04,VALID,1008.23,VALID,0,VALID,88.5789,VALID,140.358,VALID,25.2397,VALID,115,VALID,1.61523,
2012-08-15, 10:24:04,VALID,1008.2,VALID,0,VALID,88.4798,VALID,156.986,VALID,25.2397,VALID,95,VALID,1.19844,
2012-08-15, 10:25:04,VALID,1008.21,VALID,0,VALID,87.7703,VALID,170.435,VALID,25.2007,VALID,100,VALID,1.71719,
2012-08-15, 10:26:04,VALID,1008.2,VALID,0,VALID,87.6101,VALID,177.282,VALID,25.2007,VALID,139,VALID,1.25742,
2012-08-15, 10:27:04,VALID,1008.18,VALID,0,VALID,87.7398,VALID,181.357,VALID,25.1813,VALID,131,VALID,1.2832,
2012-08-15, 10:28:04,VALID,1008.2,VALID,0,VALID,89.1892,VALID,186.085,VALID,25.2397,VALID,104,VALID,0.900781,
2012-08-15, 10:29:04,VALID,1008.19,VALID,0,VALID,87.6253,VALID,190.405,VALID,25.1813,VALID,104,VALID,2.06523,
2012-08-15, 10:30:04,VALID,1008.18,VALID,0,VALID,88.1899,VALID,192.932,VALID,25.2007,VALID,112,VALID,1.15,
2012-08-15, 10:31:04,VALID,1008.17,VALID,0,VALID,87.1066,VALID,194.48,VALID,25.1813,VALID,97,VALID,1.8043,
2012-08-15, 10:32:04,VALID,1008.15,VALID,0,VALID,86.8777,VALID,195.132,VALID,25.1813,VALID,98,VALID,1.66094,
2012-08-15, 10:33:04,VALID,1008.12,VALID,0,VALID,87.6635,VALID,195.132,VALID,25.2202,VALID,108,VALID,0.779297,
2012-08-15, 10:34:04,VALID,1008.12,VALID,0,VALID,86.8472,VALID,195.132,VALID,25.2397,VALID,118,VALID,1.63867,
2012-08-15, 10:35:04,VALID,1008.11,VALID,0,VALID,87.7474,VALID,194.888,VALID,25.2806,VALID,133,VALID,1.05039,
2012-08-15, 10:36:04,VALID,1008.09,VALID,0,VALID,86.9845,VALID,193.991,VALID,25.2397,VALID,145,VALID,1.47031,
2012-08-15, 10:37:04,VALID,1008.13,VALID,0,VALID,86.6183,VALID,193.339,VALID,25.2592,VALID,137,VALID,2.30391,
2012-08-15, 10:38:04,VALID,1008.12,VALID,0,VALID,86.542,VALID,192.524,VALID,25.2397,VALID,140,VALID,1.32813,
2012-08-15, 10:39:04,VALID,1008.14,VALID,0,VALID,87.3507,VALID,191.627,VALID,25.2592,VALID,102,VALID,1.82578,
2012-08-15, 10:40:04,VALID,1008.13,VALID,0,VALID,86.4047,VALID,190.486,VALID,25.2397,VALID,99,VALID,1.9625,
2012-08-15, 10:41:04,VALID,1008.16,VALID,0,VALID,86.7404,VALID,189.508,VALID,25.2397,VALID,105,VALID,1.22031,
2012-08-15, 10:42:04,VALID,1008.09,VALID,0,VALID,87.6177,VALID,189.182,VALID,25.2592,VALID,135,VALID,1.29609,
2012-08-15, 10:43:04,VALID,1008.07,VALID,0,VALID,86.954,VALID,188.53,VALID,25.2592,VALID,132,VALID,1.26094,
2012-08-15, 10:44:04,VALID,1008.08,VALID,0,VALID,86.6793,VALID,187.144,VALID,25.2397,VALID,112,VALID,1.36445,
2012-08-15, 10:45:04,VALID,1008.11,VALID,0,VALID,85.7028,VALID,186.411,VALID,25.2611,VALID,109,VALID,1.63203,
2012-08-15, 10:46:04,VALID,1008.08,VALID,0,VALID,85.3138,VALID,186.574,VALID,25.2202,VALID,128,VALID,1.91953,
2012-08-15, 10:47:04,VALID,1008.05,VALID,0,VALID,85.7486,VALID,186.818,VALID,25.2397,VALID,124,VALID,1.68203,
2012-08-15, 10:48:04,VALID,1008.01,VALID,0,VALID,85.5503,VALID,186.981,VALID,25.2221,VALID,142,VALID,1.82266,
2012-08-15, 10:49:04,VALID,1008.03,VALID,0,VALID,85.7028,VALID,187.063,VALID,25.1813,VALID,123,VALID,2.18047,
2012-08-15, 10:50:04,VALID,1008.02,VALID,0,VALID,86.5115,VALID,187.552,VALID,25.1423,VALID,121,VALID,0.985547,
2012-08-15, 10:51:04,VALID,1008.02,VALID,0,VALID,86.8167,VALID,187.878,VALID,25.1423,VALID,118,VALID,1.17461,
2012-08-15, 10:52:04,VALID,1007.96,VALID,0,VALID,86.008,VALID,189.264,VALID,25.1423,VALID,127,VALID,1.60234,
2012-08-15, 10:53:04,VALID,1007.97,VALID,0,VALID,87.5033,VALID,190.568,VALID,25.1813,VALID,94,VALID,0.619922,
2012-08-15, 10:54:04,VALID,1007.95,VALID,0,VALID,85.3901,VALID,191.627,VALID,25.1423,VALID,115,VALID,1.35781,
2012-08-15, 10:55:04,VALID,1007.94,VALID,0,VALID,85.6647,VALID,192.85,VALID,25.1423,VALID,111,VALID,1.5918,
2012-08-15, 10:56:04,VALID,1007.95,VALID,0,VALID,85.7944,VALID,193.991,VALID,25.1229,VALID,122,VALID,1.76992,
2012-08-15, 10:57:04,VALID,1007.92,VALID,0,VALID,85.9317,VALID,195.377,VALID,25.1423,VALID,125,VALID,1.09336,
2012-08-15, 10:58:04,VALID,1007.93,VALID,0,VALID,86.1377,VALID,196.681,VALID,25.1618,VALID,117,VALID,1.53398,
2012-08-15, 10:59:04,VALID,1007.91,VALID,0,VALID,83.7727,VALID,198.148,VALID,25.1248,VALID,135,VALID,2.01953,
2012-08-15, 11:00:04,VALID,1007.87,VALID,0,VALID,85.741,VALID,199.86,VALID,25.1442,VALID,109,VALID,1.60195,
2012-08-15, 11:01:04,VALID,1007.82,VALID,0,VALID,85.6723,VALID,201.979,VALID,25.1248,VALID,130,VALID,1.70234,
2012-08-15, 11:02:04,VALID,1007.84,VALID,0,VALID,85.5732,VALID,204.261,VALID,25.1034,VALID,119,VALID,1.26445,
2012-08-15, 11:03:04,VALID,1007.84,VALID,0,VALID,84.9781,VALID,206.299,VALID,25.0839,VALID,136,VALID,1.55039,
2012-08-15, 11:04:04,VALID,1007.79,VALID,0,VALID,85.474,VALID,208.255,VALID,25.0858,VALID,111,VALID,1.71719,
2012-08-15, 11:05:04,VALID,1007.78,VALID,0,VALID,85.4206,VALID,210.701,VALID,25.0644,VALID,116,VALID,1.42188,
2012-08-15, 11:06:04,VALID,1007.76,VALID,0,VALID,87.1371,VALID,213.146,VALID,25.1423,VALID,109,VALID,1.08242,
2012-08-15, 11:07:04,VALID,1007.74,VALID,0,VALID,86.542,VALID,215.428,VALID,25.1229,VALID,127,VALID,1.29375,
2012-08-15, 11:08:04,VALID,1007.71,VALID,0,VALID,85.8096,VALID,217.547,VALID,25.1229,VALID,126,VALID,1.30508,
2012-08-15, 11:09:04,VALID,1007.7,VALID,0,VALID,86.4428,VALID,219.993,VALID,25.1229,VALID,127,VALID,1.38633,
2012-08-15, 11:10:04,VALID,1007.67,VALID,0,VALID,84.055,VALID,222.275,VALID,25.1034,VALID,138,VALID,2.90273,
2012-08-15, 11:11:04,VALID,1007.63,VALID,0,VALID,84.5814,VALID,224.557,VALID,25.1034,VALID,134,VALID,3.14531,
2012-08-15, 11:12:04,VALID,1007.63,VALID,0,VALID,86.4581,VALID,226.839,VALID,25.0839,VALID,117,VALID,1.43125,
2012-08-15, 11:13:04,VALID,1007.59,VALID,0,VALID,83.6354,VALID,229.122,VALID,25.0236,VALID,112,VALID,1.90742,
2012-08-15, 11:14:04,VALID,1007.58,VALID,0,VALID,83.5362,VALID,231.811,VALID,25.0255,VALID,133,VALID,1.36406,
2012-08-15, 11:15:04,VALID,1007.61,VALID,0,VALID,84.1694,VALID,234.501,VALID,25.0644,VALID,131,VALID,1.95,
2012-08-15, 11:16:04,VALID,1007.54,VALID,0,VALID,84.3754,VALID,236.946,VALID,25.045,VALID,124,VALID,1.72422,
2012-08-15, 11:17:04,VALID,1007.57,VALID,0,VALID,84.0474,VALID,238.984,VALID,25.045,VALID,105,VALID,1.22031,
2012-08-15, 11:18:04,VALID,1007.55,VALID,0,VALID,84.5814,VALID,240.696,VALID,25.0858,VALID,121,VALID,1.7957,
2012-08-15, 11:19:04,VALID,1007.54,VALID,0,VALID,84.734,VALID,241.592,VALID,25.0839,VALID,83,VALID,0.638281,
2012-08-15, 11:20:04,VALID,1007.5,VALID,0,VALID,83.4523,VALID,242.163,VALID,25.0644,VALID,115,VALID,1.90039,
2012-08-15, 11:21:04,VALID,1007.52,VALID,0,VALID,84.3296,VALID,242.408,VALID,25.1034,VALID,122,VALID,1.38086,
2012-08-15, 11:22:04,VALID,1007.48,VALID,0,VALID,84.1466,VALID,242,VALID,25.0839,VALID,119,VALID,2.04453,
2012-08-15, 11:23:04,VALID,1007.47,VALID,0,VALID,83.1472,VALID,241.022,VALID,25.0839,VALID,100,VALID,1.97266,
2012-08-15, 11:24:04,VALID,1007.46,VALID,0,VALID,83.9406,VALID,239.881,VALID,25.1229,VALID,92,VALID,1.24375,
2012-08-15, 11:25:04,VALID,1007.43,VALID,0,VALID,84.3907,VALID,238.414,VALID,25.1618,VALID,96,VALID,0.656641,
2012-08-15, 11:26:04,VALID,1007.45,VALID,0,VALID,84.0703,VALID,236.865,VALID,25.2202,VALID,107,VALID,1.07031,
2012-08-15, 11:27:04,VALID,1007.44,VALID,0,VALID,84.8942,VALID,234.664,VALID,25.2786,VALID,107,VALID,2.04336,
2012-08-15, 11:28:04,VALID,1007.4,VALID,0,VALID,83.048,VALID,232.626,VALID,25.2397,VALID,137,VALID,1.44102,
2012-08-15, 11:29:04,VALID,1007.36,VALID,0,VALID,84.2305,VALID,230.181,VALID,25.2592,VALID,97,VALID,1.15898,
2012-08-15, 11:30:04,VALID,1007.38,VALID,0,VALID,83.7804,VALID,227.899,VALID,25.2592,VALID,90,VALID,1.64492,
2012-08-15, 11:31:04,VALID,1007.31,VALID,0,VALID,82.7199,VALID,226.187,VALID,25.2611,VALID,133,VALID,1.62109,
2012-08-15, 11:32:04,VALID,1007.32,VALID,0,VALID,84.4364,VALID,224.15,VALID,25.2786,VALID,108,VALID,1.75664,
2012-08-15, 11:33:04,VALID,1007.3,VALID,0,VALID,83.315,VALID,222.519,VALID,25.2592,VALID,122,VALID,1.75312,
2012-08-15, 11:34:04,VALID,1007.3,VALID,0,VALID,83.6507,VALID,220.726,VALID,25.2397,VALID,108,VALID,1.925,
2012-08-15, 11:35:04,VALID,1007.24,VALID,0,VALID,85.7028,VALID,218.851,VALID,25.2786,VALID,109,VALID,0.680078,
2012-08-15, 11:36:04,VALID,1007.23,VALID,0,VALID,84.6348,VALID,218.281,VALID,25.3,VALID,95,VALID,0.771094,
2012-08-15, 11:37:04,VALID,1007.18,VALID,0,VALID,85.8402,VALID,218.525,VALID,25.3584,VALID,137,VALID,1.31172,
2012-08-15, 11:38:04,VALID,1007.16,VALID,0,VALID,84.6806,VALID,218.281,VALID,25.3565,VALID,116,VALID,1.31484,
2012-08-15, 11:39:04,VALID,1007.15,VALID,0,VALID,85.3824,VALID,217.873,VALID,25.3955,VALID,144,VALID,1.37852,
2012-08-15, 11:40:04,VALID,1007.14,VALID,0,VALID,83.643,VALID,217.466,VALID,25.3584,VALID,112,VALID,1.35781,
2012-08-15, 11:41:04,VALID,1007.12,VALID,0,VALID,84.1618,VALID,217.466,VALID,25.376,VALID,103,VALID,1.28281,
2012-08-15, 11:42:04,VALID,1007.11,VALID,0,VALID,85.1078,VALID,217.384,VALID,25.3955,VALID,105,VALID,1.18438,
2012-08-15, 11:43:04,VALID,1007.11,VALID,0,VALID,84.795,VALID,217.547,VALID,25.4169,VALID,130,VALID,1.10234,
2012-08-15, 11:44:04,VALID,1007.08,VALID,0,VALID,84.322,VALID,217.955,VALID,25.4149,VALID,158,VALID,1.11406,
2012-08-15, 11:45:04,VALID,1007.04,VALID,0,VALID,83.727,VALID,219.911,VALID,25.4149,VALID,125,VALID,1.10664,
2012-08-15, 11:46:04,VALID,1007.03,VALID,0,VALID,86.0004,VALID,221.623,VALID,25.4948,VALID,156,VALID,1.27461,
2012-08-15, 11:47:04,VALID,1007.03,VALID,0,VALID,84.6043,VALID,221.215,VALID,25.4753,VALID,188,VALID,1.97187,
2012-08-15, 11:48:04,VALID,1007.02,VALID,0,VALID,86.1072,VALID,217.547,VALID,25.4928,VALID,153,VALID,1.45781,
2012-08-15, 11:49:04,VALID,1006.97,VALID,0,VALID,84.5814,VALID,215.184,VALID,25.4928,VALID,149,VALID,1.13281,
2012-08-15, 11:50:04,VALID,1006.96,VALID,0,VALID,84.5433,VALID,219.096,VALID,25.4734,VALID,150,VALID,0.992578,
2012-08-15, 11:51:04,VALID,1006.95,VALID,0,VALID,84.2686,VALID,227.654,VALID,25.5123,VALID,192,VALID,1.0043,
2012-08-15, 11:52:04,VALID,1006.94,VALID,0,VALID,85.329,VALID,225.209,VALID,25.5123,VALID,132,VALID,0.891797,
2012-08-15, 11:53:04,VALID,1006.93,VALID,0,VALID,84.4517,VALID,213.227,VALID,25.5142,VALID,120,VALID,0.7625,
2012-08-15, 11:54:04,VALID,1006.94,VALID,0,VALID,85.3519,VALID,217.466,VALID,25.5513,VALID,120,VALID,0.951172,
2012-08-15, 11:55:04,VALID,1006.92,VALID,0,VALID,85.5121,VALID,224.394,VALID,25.5513,VALID,128,VALID,1.54648,
2012-08-15, 11:56:04,VALID,1006.88,VALID,0,VALID,85.3367,VALID,219.177,VALID,25.6311,VALID,126,VALID,1.30391,
2012-08-15, 11:57:04,VALID,1006.87,VALID,0,VALID,85.2527,VALID,213.39,VALID,25.6097,VALID,166,VALID,2.00703,
2012-08-15, 11:58:04,VALID,1006.87,VALID,0,VALID,85.7868,VALID,217.303,VALID,25.5902,VALID,138,VALID,1.74531,
2012-08-15, 11:59:04,VALID,1006.84,VALID,0,VALID,84.9857,VALID,218.851,VALID,25.5513,VALID,113,VALID,2.06836,
2012-08-15, 12:00:04,VALID,1006.81,VALID,0,VALID,86.9616,VALID,217.221,VALID,25.5727,VALID,125,VALID,1.19219,
2012-08-15, 12:01:04,VALID,1006.78,VALID,0,VALID,86.4505,VALID,215.999,VALID,25.5123,VALID,134,VALID,1.61055,